Weather History for Sturgis, MI

Change the Weather History Date:

Saturday, November 10, 2012

  Actual Average (KHAI) Record (KHAI)
Temperature  
Mean Temperature 58 °F -  
Max Temperature 64 °F 51 °F 70 °F (1975)
Min Temperature 51 °F 32 °F 14 °F (1957)
Degree Days  
Heating Degree Days 8    
Growing Degree Days 8 (Base 50)    
Moisture  
Dew Point 45 °F    
Average Humidity 64    
Maximum Humidity 76    
Minimum Humidity 52    
Precipitation  
Precipitation 0.00 in - - ()
Sea Level Pressure  
Sea Level Pressure 30.03 in    
Wind  
Wind Speed 7 mph (South)    
Max Wind Speed 17 mph    
Max Gust Speed 24 mph    
Visibility 10 miles    
Events      
Averages and records for this station are not official NWS values.
T = Trace of Precipitation, MM = Missing Value Source: NWS Daily Summary

Daily Weather History Graph

Daily Weather History Graph

Search for Another Location

Airport:

Trip Planner

Search our weather history database for the weather conditions in past years. The results will help you decide how hot, cold, wet, or windy it might be!

Date:

Astronomy

Nov. 10, 2012 Rise Set
Actual Time 7:25 AM EST 5:25 PM EST
Civil Twilight 6:56 AM EST 5:54 PM EST
Nautical Twilight 6:22 AM EST 6:28 PM EST
Astronomical Twilight 5:49 AM EST 7:00 PM EST
Moon 3:26 AM EST (11/10) 3:14 PM EST (11/10)
Length of Visible Light 10h 58m
Length of Day
9h 59m
Waning Crescent, 14% of the Moon is Illuminated
Nov 10
Waning Crescent
Nov 13
New
Nov 20
First Quarter
Nov 28
Full
Dec 6
Last Quarter

Hourly Weather History & Observations

Time (EST) Temp. Dew Point Humidity Pressure Visibility Wind Dir Wind Speed Gust Speed Precip Events Conditions
12:14 AM 51.8 °F 44.6 °F 76% 30.05 in 10.0 mi Calm Calm - N/A   Overcast
12:35 AM 51.8 °F 42.8 °F 71% 30.05 in 10.0 mi SSE 4.6 mph - N/A   Overcast
12:55 AM 51.8 °F 42.8 °F 71% 30.05 in 10.0 mi SSE 4.6 mph - N/A   Overcast
1:14 AM 51.8 °F 42.8 °F 71% 30.05 in 10.0 mi SSE 3.5 mph - N/A   Overcast
1:35 AM 51.8 °F 42.8 °F 71% 30.05 in 10.0 mi SSE 4.6 mph - N/A   Overcast
1:55 AM 51.8 °F 42.8 °F 71% 30.05 in 10.0 mi Calm Calm - N/A   Overcast
2:14 AM 51.8 °F 44.6 °F 76% 30.05 in 10.0 mi Calm Calm - N/A   Overcast
2:35 AM 51.8 °F 44.6 °F 76% 30.05 in 10.0 mi Calm Calm - N/A   Overcast
2:55 AM 51.8 °F 42.8 °F 71% 30.06 in 10.0 mi Calm Calm - N/A   Overcast
3:15 AM 51.8 °F 44.6 °F 76% 30.06 in 10.0 mi SE 3.5 mph - N/A   Overcast
3:34 AM 51.8 °F 42.8 °F 71% 30.06 in 10.0 mi SE 3.5 mph - N/A   Overcast
3:55 AM 51.8 °F 42.8 °F 71% 30.06 in 10.0 mi SSE 3.5 mph - N/A   Overcast
4:15 AM 51.8 °F 42.8 °F 71% 30.06 in 10.0 mi Calm Calm - N/A   Overcast
4:34 AM 51.8 °F 42.8 °F 71% 30.06 in 10.0 mi SSE 3.5 mph - N/A   Overcast
4:55 AM 51.8 °F 42.8 °F 71% 30.06 in 10.0 mi SSE 4.6 mph - N/A   Overcast
5:15 AM 51.8 °F 42.8 °F 71% 30.06 in 10.0 mi SSE 4.6 mph - N/A   Overcast
5:34 AM 51.8 °F 42.8 °F 71% 30.06 in 10.0 mi South 4.6 mph - N/A   Overcast
5:55 AM 51.8 °F 42.8 °F 71% 30.06 in 10.0 mi South 4.6 mph - N/A   Overcast
6:15 AM 51.8 °F 42.8 °F 71% 30.06 in 10.0 mi South 5.8 mph - N/A   Overcast
6:34 AM 51.8 °F 42.8 °F 71% 30.06 in 10.0 mi South 5.8 mph - N/A   Mostly Cloudy
6:55 AM 51.8 °F 42.8 °F 71% 30.06 in 10.0 mi South 5.8 mph - N/A   Overcast
7:15 AM 51.8 °F 42.8 °F 71% 30.06 in 10.0 mi South 6.9 mph - N/A   Overcast
7:34 AM 51.8 °F 42.8 °F 71% 30.06 in 10.0 mi South 5.8 mph - N/A   Overcast
7:55 AM 51.8 °F 42.8 °F 71% 30.07 in 10.0 mi South 6.9 mph - N/A   Overcast
8:15 AM 51.8 °F 42.8 °F 71% 30.08 in 10.0 mi South 6.9 mph - N/A   Mostly Cloudy
8:34 AM 51.8 °F 42.8 °F 71% 30.09 in 10.0 mi South 8.1 mph - N/A   Mostly Cloudy
8:55 AM 51.8 °F 42.8 °F 71% 30.09 in 10.0 mi South 6.9 mph - N/A   Mostly Cloudy
9:14 AM 53.6 °F 44.6 °F 72% 30.08 in 10.0 mi South 6.9 mph - N/A   Overcast
9:55 AM 53.6 °F 44.6 °F 72% 30.05 in 10.0 mi SSE 9.2 mph - N/A   Overcast
10:14 AM 55.4 °F 44.6 °F 67% 30.05 in 10.0 mi South 9.2 mph - N/A   Scattered Clouds
10:34 AM 57.2 °F 44.6 °F 63% 30.06 in 10.0 mi South 8.1 mph - N/A   Clear
10:55 AM 59.0 °F 46.4 °F 63% 30.06 in 10.0 mi SSW 10.4 mph - N/A   Clear
11:14 AM 60.8 °F 46.4 °F 59% 30.06 in 10.0 mi SSW 12.7 mph - N/A   Clear
11:35 AM 60.8 °F 46.4 °F 59% 30.05 in 10.0 mi SSW 10.4 mph - N/A   Clear
11:55 AM 60.8 °F 46.4 °F 59% 30.05 in 10.0 mi SSW 13.8 mph 18.4 mph N/A   Clear
12:14 PM 60.8 °F 46.4 °F 59% 30.05 in 10.0 mi SW 12.7 mph 17.3 mph N/A   Mostly Cloudy
12:35 PM 60.8 °F 46.4 °F 59% 30.03 in 10.0 mi SSW 11.5 mph - N/A   Mostly Cloudy
12:55 PM 62.6 °F 46.4 °F 55% 30.02 in 10.0 mi South 12.7 mph - N/A   Scattered Clouds
1:14 PM 62.6 °F 46.4 °F 55% 30.01 in 10.0 mi SSW 11.5 mph - N/A   Scattered Clouds
1:35 PM 62.6 °F 46.4 °F 55% 30.00 in 10.0 mi SSW 9.2 mph - N/A   Overcast
1:54 PM 62.6 °F 46.4 °F 55% 30.00 in 10.0 mi South 12.7 mph 18.4 mph N/A   Mostly Cloudy
2:15 PM 64.4 °F 46.4 °F 52% 29.99 in 10.0 mi SSW 13.8 mph - N/A   Clear
2:35 PM 64.4 °F 48.2 °F 56% 29.99 in 10.0 mi SSW 13.8 mph - N/A   Clear
2:54 PM 64.4 °F 46.4 °F 52% 30.00 in 10.0 mi South 12.7 mph - N/A   Clear
3:15 PM 62.6 °F 48.2 °F 59% 30.00 in 10.0 mi South 10.4 mph - N/A   Clear
3:35 PM 64.4 °F 48.2 °F 56% 29.99 in 10.0 mi South 10.4 mph - N/A   Clear
3:54 PM 64.4 °F 48.2 °F 56% 30.00 in 10.0 mi South 10.4 mph 16.1 mph N/A   Clear
4:15 PM 62.6 °F 48.2 °F 59% 30.01 in 10.0 mi South 8.1 mph - N/A   Clear
4:35 PM 62.6 °F 48.2 °F 59% 30.02 in 10.0 mi South 5.8 mph - N/A   Scattered Clouds
4:54 PM 62.6 °F 48.2 °F 59% 29.99 in 10.0 mi South 8.1 mph - N/A   Scattered Clouds
5:15 PM 62.6 °F 48.2 °F 59% 29.99 in 10.0 mi South 6.9 mph - N/A   Clear
5:54 PM 62.6 °F 48.2 °F 59% 29.98 in 10.0 mi South 11.5 mph - N/A   Clear
6:15 PM 62.6 °F 48.2 °F 59% 29.99 in 10.0 mi South 16.1 mph 19.6 mph N/A   Clear
6:35 PM 62.6 °F 48.2 °F 59% 29.99 in 10.0 mi South 15.0 mph 19.6 mph N/A   Scattered Clouds
6:54 PM 62.6 °F 48.2 °F 59% 29.99 in 10.0 mi South 15.0 mph 20.7 mph N/A   Clear
7:15 PM 62.6 °F 48.2 °F 59% 30.00 in 10.0 mi South 13.8 mph 19.6 mph N/A   Clear
7:35 PM 62.6 °F 48.2 °F 59% 30.00 in 10.0 mi South 16.1 mph 21.9 mph N/A   Clear
7:55 PM 62.6 °F 46.4 °F 55% 30.00 in 10.0 mi SSW 13.8 mph 23.0 mph N/A   Clear
8:15 PM 62.6 °F 46.4 °F 55% 30.00 in 10.0 mi South 13.8 mph 20.7 mph N/A   Clear
8:34 PM 60.8 °F 46.4 °F 59% 30.01 in 10.0 mi SSW 13.8 mph 19.6 mph N/A   Clear
8:55 PM 62.6 °F 46.4 °F 55% 30.01 in 10.0 mi South 15.0 mph 24.2 mph N/A   Clear
9:15 PM 62.6 °F 46.4 °F 55% 30.01 in 10.0 mi SSW 17.3 mph 24.2 mph N/A   Clear
9:34 PM 62.6 °F 46.4 °F 55% 30.01 in 10.0 mi SSW 16.1 mph 20.7 mph N/A   Clear
9:55 PM 60.8 °F 46.4 °F 59% 30.01 in 10.0 mi SSW 17.3 mph 23.0 mph N/A   Clear
10:34 PM 60.8 °F 44.6 °F 55% 30.02 in 10.0 mi SSW 12.7 mph 23.0 mph N/A   Clear
10:55 PM 60.8 °F 44.6 °F 55% 30.02 in 10.0 mi SSW 13.8 mph 20.7 mph N/A   Clear
11:15 PM 59.0 °F 44.6 °F 59% 30.02 in 10.0 mi SSW 13.8 mph - N/A   Clear
11:34 PM 59.0 °F 44.6 °F 59% 30.02 in 10.0 mi SSW 17.3 mph - N/A   Clear
11:55 PM 57.2 °F 44.6 °F 63% 30.02 in 10.0 mi SSW 15.0 mph - N/A   Clear